TimeCDT,TemperatureF,Dew PointF,Humidity,Sea Level PressureIn,VisibilityMPH,Wind Direction,Wind SpeedMPH,Gust SpeedMPH,PrecipitationIn,Events,Conditions,WindDirDegrees,DateUTC
12:15 AM,78.8,69.4,73,30.04,10.0,SW,4.6,-,N/A,,Clear,220,2013-08-27 05:15:00
12:35 AM,78.4,69.4,74,30.03,10.0,SSW,4.6,-,N/A,,Clear,210,2013-08-27 05:35:00
12:55 AM,78.1,69.3,74,30.03,10.0,SW,3.5,-,N/A,,Clear,220,2013-08-27 05:55:00
1:15 AM,78.1,69.1,74,30.02,10.0,SW,4.6,-,N/A,,Clear,230,2013-08-27 06:15:00
1:35 AM,77.9,69.3,75,30.02,10.0,SW,5.8,-,N/A,,Clear,230,2013-08-27 06:35:00
1:55 AM,77.9,69.1,74,30.02,10.0,SW,4.6,-,N/A,,Clear,220,2013-08-27 06:55:00
2:15 AM,77.9,69.1,74,30.02,10.0,SW,4.6,-,N/A,,Clear,220,2013-08-27 07:15:00
2:35 AM,77.5,69.1,75,30.01,10.0,SW,3.5,-,N/A,,Clear,220,2013-08-27 07:35:00
2:55 AM,77.4,69.3,76,30.00,10.0,SW,5.8,-,N/A,,Clear,220,2013-08-27 07:55:00
3:15 AM,77.4,69.1,76,30.00,10.0,SW,4.6,-,N/A,,Clear,220,2013-08-27 08:15:00
3:35 AM,77.4,68.9,75,29.99,10.0,SW,3.5,-,N/A,,Clear,230,2013-08-27 08:35:00
3:55 AM,77.9,68.9,74,29.99,10.0,SW,4.6,-,N/A,,Clear,220,2013-08-27 08:55:00
4:15 AM,77.7,68.9,74,29.98,10.0,SW,3.5,-,N/A,,Clear,220,2013-08-27 09:15:00
4:35 AM,77.9,68.9,74,29.98,10.0,SW,4.6,-,N/A,,Clear,220,2013-08-27 09:35:00
4:45 AM,77.0,68.0,74,29.98,10.0,SW,6.9,-,N/A,,Mostly Cloudy,220,2013-08-27 09:45:00
5:45 AM,78.8,69.8,74,29.98,10.0,SW,6.9,-,N/A,,Mostly Cloudy,230,2013-08-27 10:45:00
6:45 AM,78.8,69.8,74,30.00,10.0,WSW,9.2,-,N/A,,Overcast,240,2013-08-27 11:45:00
7:45 AM,78.8,69.8,74,30.01,10.0,WSW,11.5,-,N/A,,Overcast,240,2013-08-27 12:45:00
8:45 AM,82.4,69.8,66,30.00,10.0,WSW,9.2,-,N/A,,Mostly Cloudy,240,2013-08-27 13:45:00
9:45 AM,86.0,69.8,58,29.99,10.0,West,11.5,23.0,N/A,,Mostly Cloudy,260,2013-08-27 14:45:00
10:45 AM,87.8,69.8,55,29.99,10.0,WSW,9.2,18.4,N/A,,Mostly Cloudy,250,2013-08-27 15:45:00
11:45 AM,91.4,68.0,46,29.97,10.0,West,11.5,-,N/A,,Mostly Cloudy,260,2013-08-27 16:45:00
12:45 PM,93.2,68.0,44,29.95,10.0,West,11.5,23.0,N/A,,Mostly Cloudy,260,2013-08-27 17:45:00
1:45 PM,93.2,66.2,41,29.94,10.0,SW,11.5,23.0,N/A,,Mostly Cloudy,230,2013-08-27 18:45:00
2:45 PM,93.2,64.4,38,29.92,10.0,SW,13.8,27.6,N/A,,Mostly Cloudy,220,2013-08-27 19:45:00
3:45 PM,93.2,68.0,44,29.90,10.0,SW,11.5,24.2,N/A,,Scattered Clouds,230,2013-08-27 20:45:00
4:45 PM,93.2,68.0,44,29.90,10.0,SW,18.4,29.9,N/A,,Partly Cloudy,230,2013-08-27 21:45:00
5:45 PM,91.4,69.8,49,29.90,10.0,SW,11.5,28.8,N/A,,Partly Cloudy,220,2013-08-27 22:45:00
6:45 PM,89.6,69.8,52,29.90,10.0,SW,17.3,28.8,N/A,,Partly Cloudy,230,2013-08-27 23:45:00
7:45 PM,87.8,69.8,55,29.89,10.0,WSW,17.3,-,N/A,,Scattered Clouds,240,2013-08-28 00:45:00
8:45 PM,86.0,68.0,55,29.90,10.0,WSW,13.8,-,N/A,,Scattered Clouds,240,2013-08-28 01:45:00
9:15 PM,86.2,68.7,56,29.90,10.0,SW,8.1,17.3,N/A,,Clear,220,2013-08-28 02:15:00
9:35 PM,85.6,68.4,56,29.91,10.0,SW,9.2,-,N/A,,Clear,220,2013-08-28 02:35:00
9:45 PM,86.0,68.0,55,29.90,10.0,WSW,11.5,-,N/A,,Scattered Clouds,240,2013-08-28 02:45:00
9:55 PM,85.3,68.4,57,29.90,10.0,SW,9.2,-,N/A,,Clear,220,2013-08-28 02:55:00
10:15 PM,84.9,68.0,57,29.89,10.0,SW,8.1,-,N/A,,Clear,230,2013-08-28 03:15:00
10:35 PM,84.9,67.1,55,29.89,10.0,SW,9.2,18.4,N/A,,Clear,230,2013-08-28 03:35:00
10:55 PM,85.1,66.0,53,29.89,10.0,WSW,8.1,16.1,N/A,,Clear,240,2013-08-28 03:55:00
11:15 PM,84.9,65.5,52,29.89,10.0,SW,9.2,-,N/A,,Clear,230,2013-08-28 04:15:00
11:35 PM,84.6,65.1,52,29.87,10.0,SW,8.1,16.1,N/A,,Clear,230,2013-08-28 04:35:00
11:55 PM,84.0,64.9,53,29.87,10.0,SW,8.1,16.1,N/A,,Clear,230,2013-08-28 04:55:00